Northeast Philadelphia, PA

2:10 AM EST on November 17, 2019 (GMT -0500)
Northeast Philadelphia

Weather History for KPNE - September, 2019

Change the Weather History Date:

Friday, September 20, 2019

  Actual Average Record
Temperature  
Mean Temperature 66 °F -  
Max Temperature 81 °F 73 °F 86 °F (1997)
Min Temperature 51 °F 54 °F 48 °F (2004)
Growing Degree Days 16 (Base 50)    
Moisture  
Dew Point 49 °F    
Average Humidity 59    
Maximum Humidity 86    
Minimum Humidity 32    
Precipitation  
Precipitation 0.00 in - - ()
Sea Level Pressure  
Sea Level Pressure 30.26 in    
Wind  
Wind Speed 3 mph ()    
Max Wind Speed 13 mph    
Max Gust Speed -    
Visibility 10.0 miles    
Events      
Averages and records for this station are not official NWS values.
T = Trace of Precipitation, MM = Missing Value Source: Averaged Metar Reports

Daily Weather History Graph

Daily Weather History Graph

Search for Another Location

Airport or City:

Astronomy

Sep. 20, 2019 Rise Set
Actual Time 6:45 AM EDT 7:00 PM EDT
Civil Twilight 6:18 AM EDT 7:27 PM EDT
Nautical Twilight 5:46 AM EDT 7:59 PM EDT
Astronomical Twilight 5:14 AM EDT 8:31 PM EDT
Moon 10:48 PM EDT (9/20) 12:47 PM EDT (9/20)
Length of Visible Light 13h 09m
Length of Day
12h 15m
Waning Gibbous, 65% of the Moon is Illuminated
Sep 20
Waning Gibbous
Sep 21
Last Quarter
Sep 28
New
Oct 5
First Quarter
Oct 13
Full

Hourly Weather History & Observations

Time (EDT) Temp. Dew Point Humidity Pressure Visibility Wind Dir Wind Speed Gust Speed Precip Events Conditions
12:54 AM 57.0 °F 48.9 °F 74% 30.30 in 10.0 mi Calm Calm - N/A   Clear
1:54 AM 54.0 °F 48.0 °F 80% 30.30 in 10.0 mi Calm Calm - N/A   Clear
2:54 AM 53.1 °F 48.0 °F 83% 30.29 in 10.0 mi Calm Calm - N/A   Clear
3:54 AM 53.1 °F 48.0 °F 83% 30.29 in 10.0 mi Calm Calm - N/A   Clear
4:54 AM 53.1 °F 48.0 °F 83% 30.30 in 10.0 mi West 3.5 mph - N/A   Clear
5:54 AM 53.1 °F 48.0 °F 83% 30.30 in 10.0 mi Calm Calm - N/A   Clear
6:54 AM 51.1 °F 46.9 °F 86% 30.31 in 10.0 mi WSW 3.5 mph - N/A   Clear
7:54 AM 57.0 °F 50.0 °F 77% 30.32 in 10.0 mi WSW 3.5 mph - N/A   Clear
8:54 AM 63.0 °F 51.1 °F 65% 30.33 in 10.0 mi West 4.6 mph - N/A   Clear
9:54 AM 68.0 °F 51.1 °F 55% 30.32 in 10.0 mi WNW 10.4 mph - N/A   Clear
10:54 AM 72.0 °F 50.0 °F 46% 30.31 in 10.0 mi West 12.7 mph - N/A   Clear
11:54 AM 73.9 °F 48.0 °F 40% 30.29 in 10.0 mi NW 11.5 mph - N/A   Clear
12:54 PM 75.9 °F 48.0 °F 37% 30.26 in 10.0 mi West 8.1 mph - N/A   Clear
1:54 PM 78.1 °F 46.9 °F 33% 30.24 in 10.0 mi Variable 5.8 mph - N/A   Clear
2:54 PM 79.0 °F 48.9 °F 35% 30.22 in 10.0 mi West 6.9 mph - N/A   Clear
3:54 PM 80.1 °F 48.0 °F 32% 30.20 in 10.0 mi West 4.6 mph - N/A   Clear
5:54 PM 78.1 °F 48.9 °F 36% 30.19 in 10.0 mi WSW 6.9 mph - N/A   Clear
6:54 PM 75.0 °F 46.9 °F 37% 30.19 in 10.0 mi WSW 5.8 mph - N/A   Clear
7:54 PM 70.0 °F 50.0 °F 49% 30.21 in 10.0 mi SW 3.5 mph - N/A   Clear
8:54 PM 69.1 °F 48.9 °F 49% 30.23 in 10.0 mi WSW 3.5 mph - N/A   Clear
9:54 PM 66.9 °F 51.1 °F 57% 30.23 in 10.0 mi WSW 4.6 mph - N/A   Clear
10:54 PM 64.0 °F 52.0 °F 65% 30.23 in 10.0 mi Calm Calm - N/A   Clear
11:54 PM 62.1 °F 53.1 °F 72% 30.23 in 10.0 mi Calm Calm - N/A   Clear